When you browse on this site, cookies collect data to enhance your experience and personalize the content and advertising you see.
Visit our Privacy Policy to learn more. By continuing to use the site, you agree to this use of cookies and data.
  • In Latvia
  • List of Countries
  • For 7 days
  • Water Temperature
  • Satellite Maps
  • Weather Map
  • Weather Widgets
  • user-avatar
    Login

    Hourly Weather Yulara

    Today, 20 May, Monday

    Time Temperature Precipitation Wind Pressure Humidity
    00:00 +23°C° 0 mm 2 mps 721 mmHg 55%
    01:00 +22°C° 0 mm 3 mps 721 mmHg 57%
    02:00 +21°C° 0 mm 3 mps 721 mmHg 60%
    03:00 +21°C° 0 mm 3 mps 721 mmHg 62%
    04:00 +20°C° 0 mm 3 mps 721 mmHg 64%
    05:00 +20°C° 0 mm 3 mps 721 mmHg 67%
    06:00 +20°C° 0 mm 2 mps 721 mmHg 69%
    07:00 +21°C° 0 mm 2 mps 721 mmHg 64%
    08:00 +22°C° 0 mm 3 mps 722 mmHg 60%
    09:00 +25°C° 0 mm 2 mps 722 mmHg 51%
    10:00 +27°C° 0 mm 3 mps 722 mmHg 45%
    11:00 +29°C° 0 mm 4 mps 721 mmHg 39%
    12:00 +30°C° 0 mm 5 mps 721 mmHg 32%
    13:00 +32°C° 0 mm 4 mps 721 mmHg 29%
    14:00 +32°C° 0 mm 4 mps 721 mmHg 26%
    15:00 +32°C° 0 mm 4 mps 720 mmHg 26%
    16:00 +30°C° 0 mm 3 mps 720 mmHg 28%
    17:00 +29°C° 0 mm 3 mps 720 mmHg 30%
    18:00 +27°C° 0 mm 2 mps 720 mmHg 32%
    19:00 +27°C° 0 mm 2 mps 721 mmHg 33%
    20:00 +26°C° 0 mm 2 mps 721 mmHg 34%
    21:00 +26°C° 0 mm 2 mps 721 mmHg 35%
    22:00 +25°C° 0 mm 2 mps 721 mmHg 36%
    23:00 +24°C° 0 mm 2 mps 722 mmHg 37%

    Tomorrow, 21 May, Tuesday

    Time Temperature Precipitation Wind Pressure Humidity
    00:00 +24°C° 0 mm 1 mps 722 mmHg 37%
    01:00 +23°C° 0 mm 2 mps 722 mmHg 33%
    02:00 +23°C° 0 mm 2 mps 722 mmHg 28%
    03:00 +22°C° 0 mm 3 mps 721 mmHg 24%
    04:00 +22°C° 0 mm 3 mps 721 mmHg 24%
    05:00 +23°C° 0 mm 2 mps 722 mmHg 25%
    06:00 +21°C° 0 mm 2 mps 722 mmHg 25%
    07:00 +23°C° 0 mm 2 mps 722 mmHg 26%
    08:00 +24°C° 0 mm 2 mps 723 mmHg 27%
    09:00 +25°C° 0 mm 2 mps 723 mmHg 28%
    10:00 +27°C° 0 mm 2 mps 723 mmHg 28%
    11:00 +28°C° 0 mm 2 mps 723 mmHg 28%
    12:00 +30°C° 0 mm 2 mps 722 mmHg 29%
    13:00 +30°C° 0 mm 2 mps 722 mmHg 27%
    14:00 +30°C° 0 mm 1 mps 721 mmHg 25%
    15:00 +31°C° 0 mm 1 mps 721 mmHg 23%
    16:00 +29°C° 0 mm 1 mps 721 mmHg 25%
    17:00 +28°C° 0 mm 1 mps 721 mmHg 27%
    18:00 +27°C° 0 mm 1 mps 722 mmHg 29%
    19:00 +27°C° 0 mm 1 mps 722 mmHg 30%
    20:00 +27°C° 0 mm 2 mps 722 mmHg 32%
    21:00 +26°C° 0 mm 2 mps 723 mmHg 33%
    22:00 +26°C° 0 mm 2 mps 723 mmHg 32%
    23:00 +25°C° 0 mm 2 mps 723 mmHg 32%

    Day after tomorrow, 22 May, Wednesday

    Time Temperature Precipitation Wind Pressure Humidity
    00:00 +24°C° 0 mm 2 mps 723 mmHg 31%
    01:00 +24°C° 0 mm 2 mps 723 mmHg 33%
    02:00 +23°C° 0 mm 2 mps 723 mmHg 34%
    03:00 +23°C° 0 mm 2 mps 723 mmHg 36%
    04:00 +21°C° 0 mm 2 mps 723 mmHg 38%
    05:00 +20°C° 0 mm 2 mps 723 mmHg 40%
    06:00 +20°C° 0 mm 2 mps 723 mmHg 42%
    07:00 +21°C° 0 mm 3 mps 724 mmHg 39%
    08:00 +22°C° 0 mm 3 mps 724 mmHg 35%
    09:00 +24°C° 0 mm 3 mps 725 mmHg 32%
    10:00 +26°C° 0 mm 4 mps 725 mmHg 30%
    11:00 +27°C° 0 mm 4 mps 725 mmHg 27%
    12:00 +29°C° 0 mm 5 mps 724 mmHg 25%
    13:00 +29°C° 0 mm 4 mps 724 mmHg 24%
    14:00 +30°C° 0 mm 4 mps 723 mmHg 23%
    15:00 +30°C° 0 mm 4 mps 723 mmHg 23%
    16:00 +29°C° 0 mm 4 mps 723 mmHg 24%
    17:00 +28°C° 0 mm 4 mps 723 mmHg 26%
    18:00 +26°C° 0 mm 3 mps 723 mmHg 28%
    19:00 +26°C° 0 mm 4 mps 724 mmHg 29%
    20:00 +25°C° 0 mm 4 mps 724 mmHg 31%
    21:00 +23°C° 0 mm 4 mps 725 mmHg 33%
    22:00 +22°C° 0 mm 4 mps 724 mmHg 34%
    23:00 +22°C° 0 mm 4 mps 724 mmHg 35%

    23 May, Thursday

    Time Temperature Precipitation Wind Pressure Humidity
    00:00 +21°C° 0 mm 4 mps 724 mmHg 37%
    01:00 +20°C° 0 mm 4 mps 724 mmHg 38%
    02:00 +20°C° 0 mm 4 mps 724 mmHg 39%
    03:00 +19°C° 0 mm 4 mps 724 mmHg 41%
    04:00 +19°C° 0 mm 3 mps 724 mmHg 42%
    05:00 +18°C° 0 mm 3 mps 724 mmHg 43%
    06:00 +18°C° 0 mm 3 mps 724 mmHg 44%
    07:00 +19°C° 0 mm 3 mps 724 mmHg 41%
    08:00 +21°C° 0 mm 4 mps 725 mmHg 39%
    09:00 +22°C° 0 mm 4 mps 725 mmHg 36%
    10:00 +23°C° 0 mm 5 mps 725 mmHg 32%
    11:00 +26°C° 0 mm 5 mps 725 mmHg 28%
    12:00 +27°C° 0 mm 5 mps 724 mmHg 24%
    13:00 +28°C° 0 mm 5 mps 724 mmHg 23%
    14:00 +28°C° 0 mm 5 mps 723 mmHg 21%
    15:00 +29°C° 0 mm 4 mps 723 mmHg 20%
    16:00 +27°C° 0 mm 4 mps 723 mmHg 22%
    17:00 +26°C° 0 mm 3 mps 723 mmHg 23%
    18:00 +25°C° 0 mm 3 mps 723 mmHg 25%
    19:00 +24°C° 0 mm 3 mps 723 mmHg 26%
    20:00 +22°C° 0 mm 3 mps 724 mmHg 28%
    21:00 +22°C° 0 mm 3 mps 724 mmHg 29%
    22:00 +21°C° 0 mm 3 mps 724 mmHg 31%
    23:00 +20°C° 0 mm 3 mps 724 mmHg 33%

    24 May, Friday

    Time Temperature Precipitation Wind Pressure Humidity
    00:00 +20°C° 0 mm 3 mps 724 mmHg 35%
    01:00 +19°C° 0 mm 3 mps 723 mmHg 37%
    02:00 +19°C° 0 mm 2 mps 723 mmHg 39%
    03:00 +18°C° 0 mm 2 mps 723 mmHg 41%
    04:00 +18°C° 0 mm 2 mps 723 mmHg 43%
    05:00 +17°C° 0 mm 2 mps 722 mmHg 45%
    06:00 +17°C° 0 mm 2 mps 722 mmHg 46%
    07:00 +18°C° 0 mm 3 mps 723 mmHg 44%
    08:00 +20°C° 0 mm 3 mps 723 mmHg 41%
    09:00 +21°C° 0 mm 3 mps 724 mmHg 39%
    10:00 +22°C° 0 mm 3 mps 723 mmHg 35%
    11:00 +25°C° 0 mm 3 mps 723 mmHg 32%
    12:00 +26°C° 0 mm 3 mps 723 mmHg 29%
    13:00 +27°C° 0 mm 2 mps 722 mmHg 27%
    14:00 +27°C° 0 mm 1 mps 722 mmHg 25%
    15:00 +28°C° 0 mm 1 mps 721 mmHg 23%
    16:00 +27°C° 0 mm 1 mps 721 mmHg 24%
    17:00 +25°C° 0 mm 2 mps 721 mmHg 26%
    18:00 +24°C° 0 mm 2 mps 721 mmHg 28%
    19:00 +24°C° 0 mm 2 mps 721 mmHg 29%
    20:00 +23°C° 0 mm 2 mps 722 mmHg 30%
    21:00 +23°C° 0 mm 2 mps 722 mmHg 31%
    22:00 +21°C° 0 mm 2 mps 722 mmHg 32%
    23:00 +21°C° 0 mm 2 mps 721 mmHg 33%

    25 May, Saturday

    Time Temperature Precipitation Wind Pressure Humidity
    00:00 +20°C° 0 mm 2 mps 721 mmHg 34%
    01:00 +20°C° 0 mm 2 mps 721 mmHg 35%
    02:00 +19°C° 0 mm 2 mps 721 mmHg 37%
    03:00 +18°C° 0 mm 2 mps 720 mmHg 38%
    04:00 +18°C° 0 mm 2 mps 720 mmHg 40%
    05:00 +17°C° 0 mm 2 mps 721 mmHg 42%
    06:00 +18°C° 0 mm 1 mps 721 mmHg 43%
    07:00 +19°C° 0 mm 1 mps 721 mmHg 40%
    08:00 +20°C° 0 mm 2 mps 721 mmHg 37%
    09:00 +21°C° 0 mm 2 mps 722 mmHg 34%
    10:00 +24°C° 0 mm 2 mps 721 mmHg 31%
    11:00 +25°C° 0 mm 2 mps 721 mmHg 29%
    12:00 +26°C° 0 mm 2 mps 721 mmHg 26%
    13:00 +27°C° 0 mm 1 mps 720 mmHg 24%
    14:00 +27°C° 0 mm 1 mps 720 mmHg 23%
    15:00 +26°C° 0 mm 0 mps 719 mmHg 21%
    16:00 +27°C° 0 mm 1 mps 719 mmHg 23%
    17:00 +25°C° 0 mm 1 mps 719 mmHg 25%
    18:00 +24°C° 0 mm 2 mps 720 mmHg 27%
    19:00 +24°C° 0 mm 2 mps 720 mmHg 28%
    20:00 +22°C° 0 mm 3 mps 721 mmHg 30%
    21:00 +22°C° 0 mm 3 mps 721 mmHg 31%
    22:00 +21°C° 0 mm 5 mps 722 mmHg 39%
    23:00 +20°C° 0 mm 6 mps 722 mmHg 48%
    Show more